• In Uzbekistan
  • List of Countries
  • For 7 days
  • Water Temperature
  • Satellite Maps
  • Weather Map
  • Weather Widgets
  • user-avatar
    Login

    Hourly Weather Wien

    Today, 26 September, Wednesday

    Time Temperature Precipitation Wind Pressure Humidity
    00:00 +6°C° 0 mm 2 mps 760 mmHg 67%
    01:00 +6°C° 0 mm 1 mps 760 mmHg 68%
    02:00 +6°C° 0 mm 1 mps 760 mmHg 69%
    03:00 +6°C° 0 mm 1 mps 760 mmHg 70%
    04:00 +5°C° 0 mm 1 mps 760 mmHg 71%
    05:00 +6°C° 0 mm 1 mps 760 mmHg 69%
    06:00 +6°C° 0 mm 0 mps 760 mmHg 68%
    07:00 +6°C° 0 mm 0 mps 760 mmHg 66%
    08:00 +9°C° 0 mm 1 mps 760 mmHg 58%
    09:00 +10°C° 0 mm 2 mps 760 mmHg 51%
    10:00 +12°C° 0 mm 3 mps 760 mmHg 43%
    11:00 +13°C° 0 mm 3 mps 759 mmHg 40%
    12:00 +16°C° 0 mm 3 mps 758 mmHg 37%
    13:00 +17°C° 0 mm 3 mps 758 mmHg 34%
    14:00 +17°C° 0 mm 3 mps 757 mmHg 34%
    15:00 +17°C° 0 mm 3 mps 757 mmHg 35%
    16:00 +17°C° 0 mm 3 mps 756 mmHg 36%
    17:00 +14°C° 0 mm 3 mps 756 mmHg 41%
    18:00 +13°C° 0 mm 2 mps 756 mmHg 45%
    19:00 +10°C° 0 mm 2 mps 756 mmHg 50%
    20:00 +10°C° 0 mm 2 mps 756 mmHg 52%
    21:00 +9°C° 0 mm 2 mps 757 mmHg 53%
    22:00 +10°C° 0 mm 1 mps 757 mmHg 55%
    23:00 +10°C° 0 mm 1 mps 757 mmHg 56%

    Tomorrow, 27 September, Thursday

    Time Temperature Precipitation Wind Pressure Humidity
    00:00 +9°C° 0 mm 1 mps 756 mmHg 57%
    01:00 +9°C° 0 mm 1 mps 756 mmHg 58%
    02:00 +9°C° 0 mm 1 mps 756 mmHg 58%
    03:00 +9°C° 0 mm 1 mps 756 mmHg 58%
    04:00 +9°C° 0 mm 1 mps 755 mmHg 58%
    05:00 +9°C° 0 mm 1 mps 755 mmHg 58%
    06:00 +10°C° 0 mm 1 mps 755 mmHg 57%
    07:00 +10°C° 0 mm 1 mps 755 mmHg 56%
    08:00 +13°C° 0 mm 1 mps 755 mmHg 49%
    09:00 +15°C° 0 mm 1 mps 755 mmHg 43%
    10:00 +19°C° 0 mm 1 mps 755 mmHg 36%
    11:00 +20°C° 0 mm 1 mps 754 mmHg 33%
    12:00 +22°C° 0 mm 1 mps 754 mmHg 31%
    13:00 +23°C° 0 mm 1 mps 753 mmHg 28%
    14:00 +23°C° 0 mm 1 mps 753 mmHg 30%
    15:00 +23°C° 0 mm 1 mps 752 mmHg 32%
    16:00 +23°C° 0 mm 1 mps 752 mmHg 33%
    17:00 +21°C° 0 mm 1 mps 751 mmHg 37%
    18:00 +19°C° 0 mm 1 mps 751 mmHg 40%
    19:00 +16°C° 0 mm 2 mps 751 mmHg 43%
    20:00 +15°C° 0 mm 2 mps 751 mmHg 45%
    21:00 +15°C° 0 mm 1 mps 750 mmHg 47%
    22:00 +14°C° 0 mm 1 mps 750 mmHg 48%
    23:00 +14°C° 0 mm 1 mps 750 mmHg 50%

    Day after tomorrow, 28 September, Friday

    Time Temperature Precipitation Wind Pressure Humidity
    00:00 +13°C° 0 mm 1 mps 749 mmHg 51%
    01:00 +13°C° 0 mm 1 mps 749 mmHg 53%
    02:00 +13°C° 0 mm 1 mps 748 mmHg 54%
    03:00 +12°C° 0 mm 1 mps 748 mmHg 55%
    04:00 +12°C° 0 mm 1 mps 748 mmHg 57%
    05:00 +12°C° 0 mm 1 mps 748 mmHg 57%
    06:00 +12°C° 0 mm 1 mps 747 mmHg 58%
    07:00 +13°C° 0 mm 1 mps 747 mmHg 59%
    08:00 +15°C° 0 mm 1 mps 747 mmHg 53%
    09:00 +18°C° 0 mm 1 mps 747 mmHg 47%
    10:00 +20°C° 0 mm 2 mps 747 mmHg 41%
    11:00 +21°C° 0 mm 2 mps 747 mmHg 39%
    12:00 +23°C° 0 mm 2 mps 746 mmHg 37%
    13:00 +24°C° 0 mm 2 mps 746 mmHg 35%
    14:00 +24°C° 0 mm 2 mps 745 mmHg 37%
    15:00 +24°C° 0 mm 2 mps 745 mmHg 39%
    16:00 +23°C° 0 mm 2 mps 744 mmHg 42%
    17:00 +20°C° 0 mm 2 mps 745 mmHg 48%
    18:00 +18°C° 0 mm 2 mps 745 mmHg 55%
    19:00 +16°C° 0 mm 2 mps 745 mmHg 61%
    20:00 +16°C° 0 mm 2 mps 745 mmHg 64%
    21:00 +14°C° 0 mm 3 mps 746 mmHg 67%
    22:00 +14°C° 0 mm 3 mps 746 mmHg 70%
    23:00 +13°C° 0 mm 3 mps 746 mmHg 73%

    29 September, Saturday

    Time Temperature Precipitation Wind Pressure Humidity
    00:00 +13°C° 0 mm 3 mps 746 mmHg 76%
    01:00 +12°C° 0 mm 3 mps 746 mmHg 79%
    02:00 +12°C° 0 mm 3 mps 746 mmHg 79%
    03:00 +12°C° 0 mm 3 mps 746 mmHg 79%
    04:00 +12°C° 0 mm 3 mps 746 mmHg 79%
    05:00 +12°C° 0.2 mm 4 mps 746 mmHg 79%
    06:00 +11°C° 0.2 mm 4 mps 747 mmHg 78%
    07:00 +11°C° 0.2 mm 4 mps 747 mmHg 77%
    08:00 +12°C° 0.1 mm 4 mps 747 mmHg 73%
    09:00 +12°C° 0.1 mm 5 mps 748 mmHg 69%
    10:00 +13°C° 0.1 mm 5 mps 748 mmHg 65%
    11:00 +13°C° 0.1 mm 5 mps 749 mmHg 61%
    12:00 +14°C° 0.1 mm 5 mps 749 mmHg 57%
    13:00 +14°C° 0.1 mm 5 mps 749 mmHg 53%
    14:00 +14°C° 0 mm 5 mps 749 mmHg 52%
    15:00 +14°C° 0 mm 5 mps 749 mmHg 50%
    16:00 +14°C° 0 mm 5 mps 749 mmHg 48%
    17:00 +13°C° 0 mm 4 mps 750 mmHg 51%
    18:00 +11°C° 0 mm 3 mps 750 mmHg 54%
    19:00 +10°C° 0 mm 3 mps 750 mmHg 57%
    20:00 +9°C° 0 mm 3 mps 751 mmHg 59%
    21:00 +9°C° 0 mm 3 mps 751 mmHg 61%
    22:00 +8°C° 0 mm 3 mps 751 mmHg 64%
    23:00 +7°C° 0 mm 2 mps 751 mmHg 66%

    30 September, Sunday

    Time Temperature Precipitation Wind Pressure Humidity
    00:00 +7°C° 0 mm 2 mps 751 mmHg 68%
    01:00 +6°C° 0 mm 2 mps 751 mmHg 70%
    02:00 +6°C° 0 mm 2 mps 751 mmHg 72%
    03:00 +6°C° 0 mm 2 mps 751 mmHg 73%
    04:00 +5°C° 0 mm 2 mps 750 mmHg 75%
    05:00 +6°C° 0 mm 2 mps 750 mmHg 74%
    06:00 +6°C° 0 mm 2 mps 750 mmHg 73%
    07:00 +6°C° 0 mm 2 mps 750 mmHg 72%
    08:00 +8°C° 0 mm 2 mps 750 mmHg 64%
    09:00 +10°C° 0 mm 2 mps 750 mmHg 56%
    10:00 +13°C° 0 mm 2 mps 749 mmHg 47%
    11:00 +14°C° 0 mm 2 mps 749 mmHg 43%
    12:00 +15°C° 0 mm 2 mps 748 mmHg 39%
    13:00 +17°C° 0 mm 2 mps 748 mmHg 35%
    14:00 +17°C° 0 mm 2 mps 747 mmHg 35%
    15:00 +16°C° 0 mm 2 mps 747 mmHg 36%
    16:00 +16°C° 0 mm 2 mps 746 mmHg 36%
    17:00 +15°C° 0 mm 1 mps 746 mmHg 41%
    18:00 +13°C° 0 mm 1 mps 746 mmHg 46%
    19:00 +11°C° 0 mm 1 mps 747 mmHg 51%
    20:00 +11°C° 0 mm 1 mps 746 mmHg 52%
    21:00 +10°C° 0 mm 1 mps 746 mmHg 54%
    22:00 +10°C° 0 mm 1 mps 746 mmHg 56%
    23:00 +10°C° 0 mm 1 mps 746 mmHg 58%

    1 October, Monday

    Time Temperature Precipitation Wind Pressure Humidity
    00:00 +9°C° 0 mm 2 mps 745 mmHg 59%
    01:00 +8°C° 0 mm 2 mps 745 mmHg 61%
    02:00 +8°C° 0 mm 2 mps 744 mmHg 63%
    03:00 +8°C° 0 mm 2 mps 744 mmHg 66%
    04:00 +8°C° 0 mm 2 mps 744 mmHg 68%
    05:00 +9°C° 0 mm 1 mps 743 mmHg 69%
    06:00 +9°C° 0 mm 1 mps 743 mmHg 69%
    07:00 +10°C° 0 mm 1 mps 743 mmHg 70%
    08:00 +12°C° 0 mm 2 mps 742 mmHg 63%
    09:00 +14°C° 0 mm 3 mps 742 mmHg 57%
    10:00 +17°C° 0 mm 3 mps 742 mmHg 50%
    11:00 +19°C° 0 mm 3 mps 741 mmHg 48%
    12:00 +20°C° 0 mm 4 mps 740 mmHg 46%
    13:00 +21°C° 0 mm 4 mps 740 mmHg 45%
    14:00 +21°C° 0 mm 4 mps 739 mmHg 47%
    15:00 +21°C° 0 mm 4 mps 739 mmHg 50%
    16:00 +20°C° 0 mm 4 mps 738 mmHg 53%
    17:00 +18°C° 0 mm 3 mps 738 mmHg 60%
    18:00 +17°C° 0 mm 3 mps 738 mmHg 68%
    19:00 +14°C° 0 mm 3 mps 738 mmHg 75%
    20:00 +14°C° 0 mm 2 mps 738 mmHg 78%
    21:00 +14°C° 0 mm 2 mps 738 mmHg 80%
    22:00 +13°C° 0 mm 2 mps 737 mmHg 83%
    23:00 +13°C° 0 mm 2 mps 737 mmHg 84%
    Show more